Location: Quedlinburg
(51.7921°N, 11.1414°E)
Time: 20:40:05
(UTC+02:00)

CUBESAT XI-V - Pass Details

Date: 25 March 2026
Orbit: 643 x 664 km, 98.3° (Epoch: 14 April)

Event Time Altitude Azimuth Distance (km) Brightness Sun altitude
Exits shadow 04:40:14 16° 284° (WNW) 1,690 ? -13.9°
Drops below altitude 10° 04:42:19 10° 311° (NW) 2,059 ? -13.6°
Sets 04:45:17 0° 332° (NNW) 2,972 ? -13.1°
